DELTA 1 DEB, 13539

Orbit data source: Space-Track

DELTA 1 DEB, 13539 is space debris in LEO originally from a launch on Thu, 29 Jul 1976 UTC launched from the Air Force Western Test Range (AFWTR). Debris objects in space refer to the collection of defunct objects orbiting the Earth. Examples of debris include non-operational satellites, rocket bodies, and fragments generated from explosions, collisions, or faulty payload assembly.

Loading next visibility...
Identifier
13539, 1976-077EM
Orbit
LEO
Country
Flag of USUS
Related business
Manufacturer
Unknown
Mission
Spacecraft
Bus & Motor
Unknown
Mass
Unknown
Launch date (UTC)
1976-07-29 (50 years ago)
Launch vehicle
Unknown
Launch site
Air Force Western Test Range (AFWTR)
Object type
Payload
Rocket body
Debris
Shape & HBR
Unknown shape, 1.1 m
Radar Cross Section
Medium (>0.1 m² and <1 m²)

Expand to show TLE details & history
Last TLE update: 2 days ago

TLE from 2 days ago
0 DELTA 1 DEB
1 13539U 76077EM  26171.15118454 -.00000209  00000-0 -26500-2 0  9992
2 13539 101.8787 242.7657 0410944  58.1917 332.5750 11.65460706954101
Epoch: 2026-06-20T03:37Z
TLE epoch observation values (Epoch: 2026-06-20T03:37:42.344Z)
Latitude
27.87238°
Longitude
-86.38615°
Altitude
1,545.67 km
Speed
7.223 km/s
True Right ascension
15h 45m 38s
True Declination
27° 44' 41"
Sunlit
Object was in daylight at epoch
Visualization orbit readout
Latitude
Unknown
Longitude
Unknown
Altitude
Unknown
Speed
Unknown
Apparent Right ascension
Unknown
Apparent Declination
Unknown
Sunlit
N/A
Visualization observer readout
Local Sidereal Time
00:54:27
Azimuth
Unknown
Elevation
Unknown
Doppler factor
Unknown
Orbital elements
Apogee altitude
2,174.562 km
Perigee altitude
1,499.373 km
Semi-major axis
8,215.104 km
Eccentricity
0.04109
Inclination
101.8787°
RAAN
242.7657°
Arg. of periapsis
58.1917°
True anomaly
330.30325°
Mean anomaly
332.575°
Eccentric anomaly
331.4497°
Mean motion
2.9149 °/min
Orbital period
123.5 mins
BSTAR
-0.00265
Loading maneuver chart data...
Computing Atmospheric mass density...
Loading historical data...
Loading historical data...
Loading historical data...
Loading historical data...
Loading historical data...
Loading historical data...
Loading historical data...

Documentation

Showing up to 5 results
|